Waarnemingen

Advertentie
Mijn weer
Greifswalder Oie, Duitsland (10097): temperatuur & dauwpunt: 22.06.2017 05:00:00 - 28.06.2017 05:00:00 (CEST)Greifswalder Oie, Duitsland (10097): temperatuur 5cm & temperatuur -5cm: 22.06.2017 05:00:00 - 28.06.2017 05:00:00 (CEST)Greifswalder Oie, Duitsland (10097): temperatuur -20cm & temperatuur -100cm: 22.06.2017 05:00:00 - 28.06.2017 05:00:00 (CEST)Greifswalder Oie, Duitsland (10097): water temperatuur: 22.06.2017 05:00:00 - 28.06.2017 05:00:00 (CEST)Greifswalder Oie, Duitsland (10097): windsnelheid & windstoten: 22.06.2017 05:00:00 - 28.06.2017 05:00:00 (CEST)Greifswalder Oie, Duitsland (10097): windrichting: 22.06.2017 05:00:00 - 28.06.2017 05:00:00 (CEST)Greifswalder Oie, Duitsland (10097): luchtdruk: 22.06.2017 05:00:00 - 28.06.2017 05:00:00 (CEST)Greifswalder Oie, Duitsland (10097): zicht: 22.06.2017 05:00:00 - 28.06.2017 05:00:00 (CEST)Greifswalder Oie, Duitsland (10097): Zonneschijnduur: 22.06.2017 05:00:00 - 28.06.2017 05:00:00 (CEST)Greifswalder Oie, Duitsland (10097): neerslag: 22.06.2017 05:00:00 - 28.06.2017 05:00:00 (CEST)
Datum & Tijd tt [°C] td [°C] tt 5cm [°C] tt -5cm [°C] tt -20cm [°C] tt -100cm [°C] tw [°C] ff [km/u] ff [kn] fx [km/u] fx [kn] dd ppp [hPa] vv [km] sd [min] rr [mm]
28.06.2017 05:00:00 14,8 12,2 14,1 14,7 17,2 15,4 16,4 19 10 27 15 O 1008,1 20 0 0,0
28.06.2017 04:00:00 14,6 11,5 13,9 14,8 17,5 15,4 16,4 18 10 28 15 OZO 1008,7 21 0 0,0
28.06.2017 03:00:00 14,5 11,0 13,5 15,0 17,9 15,4 16,4 18 10 29 16 O 1009,2 22 0 0,0
28.06.2017 02:00:00 14,3 10,9 13,1 15,2 18,3 15,4 16,4 16 9 24 13 O 1009,9 22 0 0,0
28.06.2017 01:00:00 14,1 10,4 12,7 15,7 18,7 15,4 16,4 17 9 24 13 O 1010,4 22 0 0,0
28.06.2017 00:00:00 13,8 9,9 12,9 16,3 19,1 15,4 16,5 15 8 22 12 O 1010,7 23 0 0,0
27.06.2017 23:00:00 13,6 9,8 12,3 17,0 19,6 15,4 16,5 13 7 20 11 O 1010,8 22 0 0,0
27.06.2017 22:00:00 13,6 9,4 12,5 18,2 20,1 15,4 16,5 14 8 20 11 O 1011,0 23 9 0,0
27.06.2017 21:00:00 13,7 9,1 13,1 19,9 20,4 15,4 16,6 14 7 19 11 O 1011,1 25 51 0,0
27.06.2017 20:00:00 14,6 9,8 15,9 21,9 20,5 15,4 16,6 13 7 19 10 O 1011,3 16 60 0,0
27.06.2017 19:00:00 14,7 9,6 16,6 24,0 20,4 15,4 16,6 12 7 21 12 O 1011,7 32 60 0,0
27.06.2017 18:00:00 15,5 10,0 19,1 25,8 20,0 15,4 16,7 15 8 22 12 O 1012,2 11 60 0,0
27.06.2017 17:00:00 15,9 9,0 20,3 26,8 19,4 15,4 16,7 11 6 17 9 ONO 1012,7 24 55 0,0
27.06.2017 16:00:00 17,0 9,6 23,7 26,2 18,7 15,4 16,8 10 5 18 10 NNO 1013,0 22 41 0,0
27.06.2017 15:00:00 18,2 9,8 22,2 26,3 17,9 15,4 16,6 10 6 19 10 NW 1013,2 22 60 0,0
27.06.2017 14:00:00 16,3 9,0 21,5 24,4 17,2 15,4 16,6 13 7 18 10 WNW 1013,3 22 50 0,0
27.06.2017 13:00:00 15,4 8,0 21,3 22,6 16,5 15,4 16,1 16 9 21 11 W 1013,5 26 59 0,0
27.06.2017 12:00:00 15,1 8,3 19,3 20,0 16,1 15,4 15,9 14 8 27 14 WNW 1013,4 22 52 0,0
27.06.2017 11:00:00 14,6 8,4 16,2 17,7 15,8 15,4 15,9 22 12 31 17 WNW 1013,4 18 10 0,0
27.06.2017 10:00:00 14,4 8,0 17,0 17,3 15,5 15,4 15,8 21 11 34 18 W 1013,4 23 54 0,0
27.06.2017 09:00:00 14,1 8,8 16,1 15,7 15,4 15,4 15,7 23 12 37 20 W 1013,1 9 59 0,0
27.06.2017 08:00:00 13,9 8,0 14,9 14,3 15,4 15,4 15,6 26 14 38 20 WNW 1013,0 8 60 0,0
27.06.2017 07:00:00 13,6 7,9 14,1 13,3 15,6 15,4 15,6 29 16 39 21 WNW 1012,6 8 60 0,0
27.06.2017 06:00:00 13,4 8,3 13,3 13,0 15,8 15,4 15,7 30 16 37 20 WNW 1012,4 13 54 0,0
27.06.2017 05:00:00 13,1 9,5 12,6 13,3 16,1 15,4 15,7 29 16 42 23 WNW 1011,9 33 0 0,0
27.06.2017 04:00:00 14,0 9,6 13,4 13,8 16,3 15,4 15,8 34 19 42 23 WNW 1012,0 28 0 0,0
27.06.2017 03:00:00 14,5 10,1 13,7 13,9 16,6 15,4 15,9 34 19 45 24 W 1012,1 30 0 0,0
27.06.2017 02:00:00 14,9 10,2 14,1 14,2 16,9 15,4 15,9 38 21 46 25 W 1011,8 27 0 0,0
27.06.2017 01:00:00 14,9 10,3 14,2 14,6 17,2 15,5 16,0 35 19 47 26 WNW 1011,3 31 0 0,0
27.06.2017 00:00:00 15,2 10,4 14,5 15,1 17,5 15,5 16,1 39 21 48 26 W 1011,2 30 0 0,0
26.06.2017 23:00:00 15,5 10,5 14,9 15,6 17,8 15,5 16,2 39 21 49 27 W 1011,0 30 0 0,0
26.06.2017 22:00:00 15,9 10,3 15,3 16,3 18,1 15,5 16,3 40 22 53 29 W 1010,9 42 24 0,0
26.06.2017 21:00:00 16,4 10,5 15,8 17,4 18,3 15,5 16,5 42 23 50 27 WNW 1010,6 23 60 0,0
26.06.2017 20:00:00 16,8 10,0 17,0 18,7 18,4 15,5 16,6 44 24 51 27 W 1010,4 9 60 0,0
26.06.2017 19:00:00 17,4 9,0 18,3 19,9 18,3 15,5 16,7 44 24 55 30 W 1010,2 11 59 0,0
26.06.2017 18:00:00 17,4 10,3 18,7 20,9 18,2 15,5 16,8 43 23 54 29 W 1009,7 7 60 0,0
26.06.2017 17:00:00 17,5 9,7 19,2 21,5 17,9 15,5 16,8 43 23 54 29 W 1009,5 5 60 0,0
26.06.2017 16:00:00 17,4 9,5 19,3 21,5 17,5 15,5 16,7 46 25 60 32 WNW 1009,2 6 60 0,0
26.06.2017 15:00:00 17,3 9,2 19,2 21,2 17,1 15,5 16,6 47 26 56 31 W 1009,0 8 60 0,0
26.06.2017 14:00:00 16,8 9,2 19,0 20,1 16,8 15,5 16,7 47 26 61 33 W 1008,7 4,3 60 0,0
26.06.2017 13:00:00 16,3 10,4 17,2 19,6 16,5 15,6 16,6 46 25 59 32 W 1008,4 7 59 0,0
26.06.2017 12:00:00 16,2 10,3 18,7 19,2 16,2 15,6 17,0 46 25 59 32 W 1007,8 6 52 0,0
26.06.2017 11:00:00 15,9 9,3 18,8 18,5 15,9 15,6 16,7 41 22 53 29 W 1007,6 7 53 0,0
26.06.2017 10:00:00 15,3 9,9 17,8 17,4 15,6 15,6 16,3 42 23 51 28 W 1007,2 9 54 0,0
26.06.2017 09:00:00 14,9 9,3 17,0 16,1 15,5 15,6 16,1 43 23 53 28 W 1007,0 7 60 0,0
26.06.2017 08:00:00 14,5 9,8 15,7 14,9 15,4 15,6 15,9 39 21 48 26 W 1006,7 6 60 0,0
26.06.2017 07:00:00 14,4 10,5 14,7 14,0 15,5 15,6 15,9 41 22 63 34 W 1006,6 15 21 0,0
26.06.2017 06:00:00 14,5 12,1 13,8 13,8 15,6 15,6 15,9 46 25 59 32 WZW 1006,4 27 2 0,0
26.06.2017 05:00:00 14,5 11,8 14,0 13,8 15,8 15,6 16,0 49 26 59 32 WZW 1006,4 30 0 0,0
26.06.2017 04:00:00 14,1 11,7 13,6 13,9 15,9 15,6 16,1 42 23 55 30 WZW 1006,5 32 0 0,0
26.06.2017 03:00:00 14,7 11,7 14,3 13,9 16,1 15,6 16,2 45 25 55 30 WZW 1006,8 30 0 0,0
26.06.2017 02:00:00 14,8 10,7 13,9 14,1 16,4 15,6 16,3 42 23 55 30 WZW 1007,0 34 0 0,0
26.06.2017 01:00:00 15,3 10,8 14,4 14,7 16,5 15,6 16,5 40 22 53 28 W 1006,9 37 0 0,0
26.06.2017 00:00:00 15,7 11,2 15,1 15,0 16,7 15,7 16,7 43 23 52 28 WZW 1007,1 36 0 0,0
25.06.2017 23:00:00 15,7 12,0 15,4 15,3 16,9 15,7 16,9 37 20 51 28 WNW 1006,9 32 0 0,0
25.06.2017 22:00:00 16,3 12,6 16,0 15,8 17,1 15,7 16,9 37 20 47 25 WNW 1007,1 30 0 0,0
25.06.2017 21:00:00 16,8 12,0 16,5 16,3 17,3 15,7 17,0 32 18 46 25 W 1006,7 35 1 0,0
25.06.2017 20:00:00 16,9 12,8 16,1 17,1 17,4 15,7 17,1 32 17 43 23 W 1006,5 31 13 0,0
25.06.2017 19:00:00 17,2 12,4 17,2 17,8 17,5 15,7 17,1 36 19 45 25 W 1006,5 15 15 0,0
25.06.2017 18:00:00 17,0 12,6 17,1 18,1 17,5 15,7 17,2 38 21 47 25 W 1006,4 20 16 0,0
25.06.2017 17:00:00 16,2 13,8 16,0 18,1 17,5 15,7 17,4 38 20 48 26 W 1006,5 17 0 0,0
25.06.2017 16:00:00 17,2 14,4 17,3 19,0 17,4 15,7 17,7 38 21 50 27 WZW 1006,1 22 0 0,0
25.06.2017 15:00:00 18,2 13,3 19,1 21,6 16,9 15,7 17,5 35 19 43 23 WZW 1005,9 14 43 0,0
25.06.2017 14:00:00 18,2 13,7 21,0 20,4 16,5 15,7 17,0 31 17 43 23 WZW 1005,7 9 48 0,0
25.06.2017 13:00:00 16,4 13,7 16,5 17,0 16,4 15,8 16,6 40 22 48 26 W 1005,8 14 0 0,0
25.06.2017 12:00:00 15,7 14,5 15,7 16,7 16,4 15,8 16,6 33 18 50 27 W 1005,2 18 0 8,9
25.06.2017 11:00:00 17,2 15,7 16,7 17,2 16,2 15,8 16,5 39 21 51 28 ZW 1004,3 5 0 0,1
25.06.2017 10:00:00 17,2 15,4 17,0 16,9 16,1 15,8 16,4 20 11 31 17 ZZW 1005,0 12 0 0,0
25.06.2017 09:00:00 16,1 14,9 16,0 16,0 16,0 15,8 16,2 26 14 32 17 ZZW 1005,7 12 0 0,0
25.06.2017 08:00:00 14,7 12,9 14,6 15,2 16,0 15,8 16,2 17 9 28 15 ZZW 1006,4 27 0 0,0
25.06.2017 07:00:00 13,7 13,1 13,5 14,7 16,1 15,8 16,1 26 14 37 20 ZZW 1007,0 22 0 0,8
25.06.2017 06:00:00 14,1 12,8 13,6 14,7 16,2 15,8 16,1 29 16 37 20 ZW 1007,3 5 0 0,0
25.06.2017 05:00:00 14,6 12,4 14,2 14,7 16,3 15,8 16,1 31 17 37 20 ZW 1008,0 15 0 0,0
25.06.2017 04:00:00 15,3 12,4 14,9 14,8 16,4 15,8 16,2 30 16 42 23 ZW 1008,3 40 0 0,0
25.06.2017 03:00:00 15,7 12,0 15,2 14,8 16,6 15,8 16,1 34 19 48 26 W 1008,5 36 0 0,0
25.06.2017 02:00:00 15,8 12,2 15,0 14,9 16,7 15,8 16,1 32 17 48 26 W 1009,0 22 0 0,0
25.06.2017 01:00:00 16,1 11,7 15,2 14,9 16,9 15,8 16,3 38 20 49 26 W 1009,3 41 0 0,0
25.06.2017 00:00:00 16,1 12,3 15,3 15,4 17,1 15,9 16,5 37 20 49 26 W 1009,0 38 0 0,0
24.06.2017 23:00:00 16,7 13,4 15,9 15,7 17,3 15,9 16,6 37 20 50 27 W 1009,0 40 0 0,0
24.06.2017 22:00:00 16,7 13,5 16,0 16,1 17,5 15,9 16,6 43 23 55 30 W 1008,7 40 27 0,0
24.06.2017 21:00:00 16,9 14,0 16,2 16,8 17,6 15,9 16,7 46 25 64 34 WNW 1008,3 31 37 0,1
24.06.2017 20:00:00 17,6 15,2 16,8 17,6 17,7 15,9 16,7 48 26 72 39 WZW 1007,8 15 24 0,2
24.06.2017 19:00:00 16,6 15,3 16,1 17,7 17,8 15,9 16,8 54 29 79 43 WZW 1007,5 5 0 0,1
24.06.2017 18:00:00 17,0 15,7 16,4 17,9 17,8 15,9 16,9 48 26 61 33 WZW 1007,6 4,7 0 0,1
24.06.2017 17:00:00 18,1 15,3 18,2 18,6 17,8 15,9 17,1 43 23 63 34 WZW 1007,6 16 0 0,0
24.06.2017 16:00:00 18,3 15,1 19,1 18,9 17,7 15,9 17,2 42 23 53 29 WZW 1007,8 16 3 0,0
24.06.2017 15:00:00 18,1 15,5 18,5 19,1 17,5 15,9 17,2 39 21 51 28 WZW 1008,0 17 1 0,0
24.06.2017 14:00:00 18,2 15,5 19,3 19,4 17,4 15,9 17,2 33 18 51 28 WZW 1008,0 11 3 0,0
24.06.2017 13:00:00 17,7 15,2 18,0 19,2 17,1 15,9 17,0 38 20 50 27 WZW 1008,4 10 10 0,0
24.06.2017 12:00:00 17,6 15,2 18,8 18,3 16,9 16,0 16,8 39 21 50 27 WZW 1008,5 14 1 0,0
24.06.2017 11:00:00 17,4 14,9 18,9 18,1 16,8 16,0 16,6 38 21 48 26 WZW 1008,5 13 6 0,0
24.06.2017 10:00:00 16,6 14,7 16,9 16,8 16,7 16,0 16,4 40 21 53 29 WZW 1008,8 16 0 0,0
24.06.2017 09:00:00 16,4 14,6 16,5 16,5 16,6 16,0 16,3 40 21 48 26 WZW 1008,7 15 0 0,0
24.06.2017 08:00:00 16,1 14,5 16,4 16,3 16,6 16,0 16,3 37 20 50 27 WZW 1008,9 11 1 0,0
24.06.2017 07:00:00 15,8 14,2 15,9 15,9 16,6 16,0 16,2 40 22 50 27 WZW 1009,2 11 0 0,0
24.06.2017 06:00:00 15,8 14,2 15,7 15,5 16,7 16,0 16,2 37 20 47 26 WZW 1009,5 10 0 0,0
24.06.2017 05:00:00 15,8 13,9 15,5 15,4 16,8 16,0 16,2 39 21 51 27 WZW 1009,6 16 0 0,0
24.06.2017 04:00:00 15,7 13,6 15,4 15,3 16,9 16,0 16,2 42 23 53 29 W 1009,9 17 0 0,0
24.06.2017 03:00:00 15,8 13,8 15,1 15,3 17,0 16,0 16,4 35 19 43 23 WZW 1009,9 15 0 0,0
24.06.2017 02:00:00 15,7 14,1 14,8 15,5 17,1 16,0 16,5 34 19 52 28 W 1010,6 13 0 0,0
24.06.2017 01:00:00 15,8 13,5 15,4 15,5 17,3 16,0 16,5 41 22 53 29 W 1010,6 16 0 0,0
24.06.2017 00:00:00 16,3 13,2 15,9 15,6 17,4 16,0 16,5 44 24 54 29 W 1010,8 23 0 0,0
23.06.2017 23:00:00 16,5 13,0 16,1 15,9 17,6 16,0 16,6 42 23 54 29 W 1010,8 26 0 0,0
23.06.2017 22:00:00 16,9 12,6 16,6 16,2 17,7 16,0 16,7 43 23 65 35 WNW 1010,8 30 0 0,0
23.06.2017 21:00:00 17,5 14,8 17,0 16,8 17,8 16,0 16,7 41 22 54 29 W 1010,6 19 0 0,0
23.06.2017 20:00:00 17,6 14,2 17,3 17,0 17,9 16,0 16,7 51 27 62 33 W 1010,0 24 0 0,0
23.06.2017 19:00:00 17,3 14,7 17,1 17,2 18,0 16,0 16,8 51 28 68 37 W 1009,5 10 0 0,0
23.06.2017 18:00:00 17,1 15,7 16,3 17,4 18,1 16,0 16,9 49 26 62 34 W 1009,2 10 0 0,3
23.06.2017 17:00:00 16,7 16,2 16,6 17,8 18,1 16,0 17,5 45 24 56 30 W 1008,7 4,2 0 0,1
23.06.2017 16:00:00 16,8 16,4 16,8 17,9 18,2 16,0 17,5 39 21 48 26 W 1008,6 8 0 0,3
23.06.2017 15:00:00 16,9 16,5 16,9 17,7 18,2 16,0 17,1 34 18 41 22 W 1008,4 2,9 0 0,2
23.06.2017 14:00:00 17,0 16,3 16,7 17,7 18,3 16,0 17,1 32 17 44 24 W 1008,0 4,7 0 0,3
23.06.2017 13:00:00 16,9 16,4 16,7 17,8 18,3 16,0 17,1 33 18 43 23 WNW 1007,6 3,6 0 0,1
23.06.2017 12:00:00 16,9 16,5 16,8 17,8 18,4 16,0 17,2 32 17 42 23 WNW 1006,9 3,0 0 0,0
23.06.2017 11:00:00 17,0 16,2 17,1 17,9 18,5 16,0 17,2 34 18 45 25 WNW 1006,3 3,8 0 0,0
23.06.2017 10:00:00 17,3 16,3 17,4 18,2 18,5 16,0 17,3 38 20 45 24 WNW 1005,4 7 0 0,0
23.06.2017 09:00:00 17,5 16,4 17,4 17,9 18,6 16,0 17,4 34 18 45 25 W 1004,7 3,4 0 0,0
23.06.2017 08:00:00 17,6 16,5 17,0 17,8 18,7 16,0 17,5 34 18 41 22 W 1004,2 4,1 0 0,0
23.06.2017 07:00:00 17,5 16,8 17,1 17,7 18,8 16,0 17,5 29 16 37 20 W 1003,8 5 0 2,0
23.06.2017 06:00:00 17,3 16,8 17,0 17,7 18,9 16,0 17,6 27 15 56 30 W 1003,8 3,2 0 2,9
23.06.2017 05:00:00 17,7 17,0 17,2 18,0 19,1 16,0 17,7 36 19 48 26 W 1003,1 3,9 0 0,8
23.06.2017 04:00:00 18,3 16,5 17,6 18,1 19,3 16,0 17,6 31 17 42 23 WZW 1003,1 24 0 0,0
23.06.2017 03:00:00 18,2 17,3 17,5 18,4 19,4 16,0 17,7 19 11 34 18 ZW 1003,4 17 0 0,0
23.06.2017 02:00:00 17,5 16,8 17,1 18,4 19,6 16,0 17,7 11 6 29 16 ZZO 1003,9 7 0 0,1
23.06.2017 01:00:00 17,3 17,0 17,2 18,8 19,9 16,0 17,8 18 10 24 13 OZO 1003,6 4,1 0 0,7
23.06.2017 00:00:00 17,7 17,4 17,4 19,0 20,1 16,0 17,6 6 4 26 14 Z 1006,2 1,7 0 4,0
22.06.2017 23:00:00 17,1 16,5 16,9 19,4 20,4 16,0 17,6 8 4 19 11 OZO 1006,2 2,4 0 1,0
22.06.2017 22:00:00 17,2 16,0 16,8 20,0 20,6 16,0 17,6 14 8 19 10 O 1005,9 12 0 0,1
22.06.2017 21:00:00 17,5 16,1 17,4 21,0 20,7 16,0 17,6 10 6 16 9 O 1006,7 9 0 0,0
22.06.2017 20:00:00 17,8 15,5 18,6 22,1 20,8 16,0 18,1 13 7 20 11 OZO 1006,8 23 1 0,0
22.06.2017 19:00:00 17,6 14,2 18,8 23,6 20,7 16,0 18,0 13 7 19 10 OZO 1007,3 36 51 0,0
22.06.2017 18:00:00 18,6 14,4 23,0 24,5 20,4 16,0 18,4 12 7 21 11 OZO 1008,1 16 60 0,0
22.06.2017 17:00:00 18,1 13,6 22,0 24,6 20,1 16,0 19,1 15 8 22 12 ZO 1009,0 18 48 0,0
22.06.2017 16:00:00 19,0 14,7 23,0 23,8 19,8 15,9 18,9 10 5 18 10 Z 1009,6 30 60 0,0
22.06.2017 15:00:00 17,9 14,2 21,0 20,8 19,9 15,9 18,1 8 5 33 18 ZZO 1010,3 29 11 0,0
22.06.2017 14:00:00 16,5 12,7 15,7 20,4 20,0 15,9 18,2 26 14 41 22 ZZW 1011,3 23 0 0,0
22.06.2017 13:00:00 17,1 12,5 15,4 22,5 19,8 15,9 18,0 31 17 41 22 WZW 1012,6 13 0 0,3
22.06.2017 12:00:00 18,7 11,8 22,4 24,2 19,3 15,9 18,0 3 2 8 4 WZW 1012,3 42 16 0,0
22.06.2017 11:00:00 18,3 12,7 21,4 23,0 18,8 15,9 18,0 4 2 10 5 NNW 1012,5 38 19 0,0
22.06.2017 10:00:00 17,9 11,6 23,5 22,2 18,4 15,9 17,8 6 4 16 9 ZW 1013,2 40 60 0,0
22.06.2017 09:00:00 17,1 11,3 20,2 19,7 18,2 15,9 17,6 16 9 24 13 ZW 1013,2 60 60 0,0
22.06.2017 08:00:00 16,4 12,0 18,0 17,1 18,2 15,9 17,5 19 11 26 14 WZW 1013,7 24 9 0,0
22.06.2017 07:00:00 15,6 12,3 15,6 16,8 18,4 15,9 17,9 22 12 27 15 WZW 1014,0 31 0 0,0
22.06.2017 06:00:00 15,4 12,2 15,2 16,7 18,5 15,9 18,2 21 11 27 15 WZW 1014,0 36 0 0,0
22.06.2017 05:00:00 15,3 12,6 15,1 16,8 18,7 15,9 18,1 22 12 25 14 ZW 1014,3 33 0 0,0

tt = temperatuur
td = dauwpunt
tt 5cm = temperatuur 5cm
tt -5cm = temperatuur -5cm
tt -20cm = temperatuur -20cm
tt -100cm = temperatuur -100cm
tw = water temperatuur
ff = windsnelheid
fx = windstoten
dd = windrichting
ppp = luchtdruk
vv = zicht
sd = Zonneschijnduur
rr = neerslag

Weerstations in de omgeving